Regional Weather Roundup
Issued by NWS San Angelo, TX

Home | Current Version | Previous Version | Text Only | Print | Product List | Glossary On
Versions: 1 2 3 4 5 6 7 8 9 10 11 12 13 14 15 16 17 18 19 20 21 22 23 24 25 26 27 28 29 30 31 32 33 34 35 36 37 38 39 40 41 42 43 44 45 46 47 48 49 50
000
ASUS44 KSJT 291310
RWRSJT
WEST CENTRAL TEXAS REGIONAL WEATHER ROUNDUP
NATIONAL WEATHER SERVICE SAN ANGELO TX
800 AM CDT SAT AUG 29 2015

NOTE: "FAIR" INDICATES FEW OR NO CLOUDS BELOW 12,000 FEET WITH NO
SIGNIFICANT WEATHER AND/OR OBSTRUCTIONS TO VISIBILITY.

TXZ049-054-064>066-071>073-076>078-098-099-113-114-127-128-139-140-
154-155-168>170-291400
...LOCATIONS ACROSS WEST CENTRAL TEXAS...

CITY           SKY/WX    TMP DP  RH WIND       PRES   REMARKS
SAN ANGELO     CLOUDY    73  58  59 SW5       30.09R
ABILENE        CLOUDY    77  55  46 SW14      30.05R
DYESS AFB      CLOUDY    78  56  45 S8        30.04R
JUNCTION       CLEAR     69  59  70 SW5       30.08R
SWEETWATER     MOCLDY    77  51  39 W6        30.11R
BROWNWOOD      NOT AVBL
COLEMAN        CLOUDY    75  62  62 SW8       30.08R
SONORA         PTCLDY    66  57  72 CALM      30.13R
OZONA          FAIR      68  57  68 CALM      30.12R
BRADY          CLEAR     72  61  68 S7        30.08R
$$

TEXAS PANHANDLE/OKLAHOMA PANHANDLE

CITY           SKY/WX    TMP DP  RH WIND       PRES   REMARKS
AMARILLO       CLOUDY    66  60  81 NW8       30.15R
BORGER         MOCLDY    67  61  81 W5        30.12R
CANADIAN       PTCLDY    65  63  92 CALM      30.08R
DALHART        PTCLDY    63  57  81 N9        30.19R
DUMAS          MOSUNNY   63  58  85 NW7       30.16R
GUYMON         NOT AVBL
HEREFORD       CLOUDY    64  62  92 W5        30.17R
PAMPA          PTSUNNY   66  62  86 CALM      30.13R
PERRYTON       CLEAR     67  63  87 NE5       30.12R
$$

SOUTHERN PANHANDLE/SOUTH PLAINS/ROLLING PLAINS

CITY           SKY/WX    TMP DP  RH WIND       PRES   REMARKS
LUBBOCK        CLOUDY    70  64  81 SW6       30.14R
SNYDER         MOCLDY    74  61  64 NW3       30.09R
CHILDRESS      CLOUDY    70  67  90 NW7       30.04R
SEMINOLE       CLOUDY    68  64  88 NW3       30.16R
$$

PERMIAN BASIN

CITY           SKY/WX    TMP DP  RH WIND       PRES   REMARKS
MIDLAND        LGT RAIN  71  64  78 N10       30.12R
ODESSA         LGT RAIN  70  62  76 NE9       30.14R
WINK           CLOUDY    72  65  78 N9        30.11R
$$

FAR WEST/SOUTHWEST MOUNTAINS/TRANS PECOS

CITY           SKY/WX    TMP DP  RH WIND       PRES   REMARKS
ALPINE         CLOUDY    68  56  64 NE3       30.24S
DRYDEN           N/A     73  60  63 VRB7      30.06R
EL PASO        MOCLDY    71  60  68 N8        30.14R
FORT STOCKTON  LGT RAIN  73  52  47 SE8       30.10R
GUADALUPE PASS MOCLDY    63  56  78 NE22      30.26R
MARFA          CLOUDY    66  55  68 NW5       30.21S
PECOS          CLOUDY    74  62  67 NW10      30.10R
$$

DALLAS/FORT WORTH METROPLEX

CITY           SKY/WX    TMP DP  RH WIND       PRES   REMARKS
DFW AIRPORT    PTSUNNY   79  64  60 S8        30.00R
FTW MEACHAM    PTSUNNY   80  67  64 SE7       30.00R
DAL-EXECUTIVE  PTSUNNY   77  65  66 S5        30.01R
GRAND PRAIRIE  SUNNY     79  66  65 S6        30.03R
ADDISON        PTSUNNY   79  64  61 S7        30.02R
MESQUITE       SUNNY     73  70  88 S5        30.02R
LANCASTER      CLOUDY    75  64  67 CALM      30.02R
$$

NORTH CENTRAL TEXAS

CITY           SKY/WX    TMP DP  RH WIND       PRES   REMARKS
SHRMAN/DENISON LGT RAIN  76  69  79 S7        30.02R
GAINESVILLE    SUNNY     76  64  64 S6        30.01R
BRIDGEPORT     CLOUDY    81  63  53 S7        30.00R
DENTON         MOSUNNY   78  65  63 S6        30.00R
WAXAHACHIE     CLOUDY    74  67  76 S5        30.04R
GRANBURY       CLOUDY    79  64  58 SE5       30.03R
$$

WESTERN NORTH TEXAS

CITY           SKY/WX    TMP DP  RH WIND       PRES   REMARKS
WICHITA FALLS  MOSUNNY   73  64  73 SE6       29.96S
VERNON         PTSUNNY   73  59  62 CALM      29.98R
BRECKENRIDGE   CLOUDY    81  57  44 S13G18    30.02R HAZE
COMANCHE       CLOUDY    77  63  61 SW8       30.05R
$$

CENTRAL AND SOUTH CENTRAL TEXAS

CITY           SKY/WX    TMP DP  RH WIND       PRES   REMARKS
AUSTIN/BERGSTM MOSUNNY   67  65  93 CALM      30.04R
WACO           CLOUDY    77  65  66 S9        30.04R
HILLSBORO      CLOUDY    76  64  65 S9        30.03R
TEMPLE         MOSUNNY   72  63  73 S3        30.05R
KILLEEN-GRAY   MOSUNNY   71  63  74 S3        30.05R
FORT HOOD      CLOUDY    73  64  73 S3        30.04R
GEORGETOWN     NOT AVBL
LAGO VISTA     FAIR      73  63  71 W7        30.07R
SAN MARCOS     SUNNY     66  61  82 CALM      30.06R
NEW BRAUNFELS  SUNNY     70  66  87 W3        30.03R
RANDOLPH AFB   SUNNY     72  64  75 W3        30.04R
SAN ANTONIO    SUNNY     72  64  76 NW3       30.05R
STINSON        SUNNY     70  65  84 CALM      30.03R
PLEASANTON     NOT AVBL
LA GRANGE      SUNNY     70  67  90 CALM      30.03R
GIDDINGS       SUNNY     68  66  92 CALM      30.09R
$$

EAST TEXAS

CITY           SKY/WX    TMP DP  RH WIND       PRES   REMARKS
PARIS          CLOUDY    72  57  60 E6        30.03R
CLARKSVILLE    NOT AVBL
TYLER          MOSUNNY   77  68  73 SW10      30.04R
LONGVIEW       MOSUNNY   74  68  81 S7        30.04R
PALESTINE      PTSUNNY   73  69  87 SE3       30.06R
NACOGDOCHES    PTSUNNY   66  64  94 CALM      30.05R
$$

TEXAS HILL COUNTRY AND EDWARDS PLATEAU

CITY           SKY/WX    TMP DP  RH WIND       PRES   REMARKS
LLANO          MOSUNNY   73  63  68 CALM      30.10R
HORSESHOE BAY  FAIR      74  62  66 CALM      30.06R
KERRVILLE      CLEAR     65  61  87 CALM      30.08R
FREDERICKSBRG  CLEAR     67  61  79 W3        30.09R
ROCKSPRINGS    SUNNY     64  59  82 S5        30.12R
HONDO          CLEAR     64  59  83 N5        30.07S
UVALDE         SUNNY     65  61  85 NE3       30.06S
DEL RIO        CLEAR     72  61  68 E8        30.03R
$$

SOUTHEAST TEXAS

CITY           SKY/WX    TMP DP  RH WIND       PRES   REMARKS
COLLEGE STN    SUNNY     72  68  87 CALM      30.05R
CALDWELL       SUNNY     70  70 100 CALM      30.08R
CROCKETT       MOSUNNY   70  66  88 CALM      30.08R
BRENHAM        SUNNY     71  71  98 CALM      30.05R
HUNTSVILLE     MOSUNNY   73  69  87 CALM      30.05R
CONROE         SUNNY     68  65  90 CALM      30.05R
HOUSTON BUSH   MOSUNNY   72  70  93 CALM      30.03R
HOUSTON HOBBY  MOSUNNY   73  69  87 CALM      30.02R
PERLAND        SUNNY     73  68  84 CALM      30.04R
WHARTON        SUNNY     68  68  98 CALM      30.04R FOG
$$

THE UPPER TEXAS COAST

CITY           SKY/WX    TMP DP  RH WIND       PRES   REMARKS
ORANGE         SUNNY    N/A N/A N/A CALM      30.05R
PORT ARTHUR    SUNNY     74  71  91 CALM      30.03R
GALVESTON      MOSUNNY   81  66  60 CALM      30.03R
ANGLETON       SUNNY     69  68  96 CALM      30.02R
BAY CITY       SUNNY     70  70  99 CALM      30.02R
$$

TEXAS COASTAL BEND, RIO GRANDE PLAINS DEEP SOUTH TEXAS

CITY           SKY/WX    TMP DP  RH WIND       PRES   REMARKS
VICTORIA       SUNNY     70  69  97 N3        30.03R
BEEVILLE       FAIR      68  67  98 N3        30.03R
ROCKPORT       PTSUNNY   77  67  71 W3        30.00R
PORT ARANSAS   MOSUNNY   80  66  63 CALM      30.00R
PORT LAVACA    SUNNY     70  69  95 N3        30.02R
CORPUS CHRISTI MOSUNNY   71  62  73 N3        30.01R
KINGSVILLE NAS SUNNY     70  67  90 CALM      30.01R
COTULLA        CLEAR     71  63  75 CALM      30.03R
LAREDO         CLEAR     73  64  73 E6        30.02R
BROWNSVILLE    SUNNY     71  67  87 NE3       29.99R
PORT ISABEL    SUNNY     75  69  81 CALM      29.99R
HEBBRONVILLE   NOT AVBL
MCALLEN        CLEAR     78  66  66 E5        30.00R
WESLACO        SUNNY     70  67  88 CALM      29.99R
FALFURRIAS     SUNNY     65  62  89 CALM      30.01R
EDINBURG       SUNNY     69  65  88 CALM      30.01R
$$


USA.gov is the U.S. government's official web portal to all federal, state and local government web resources and services.